Location: Fort Frances
(48.6170°N, 93.4170°W)
Time: 08:43:12
(UTC-06:00)

ISS - All Passes

Search period start: 01 February 2015 00:00
Search period end: 11 February 2015 00:00
Orbit: 400 x 408 km, 51.6° (Epoch: 01 February)

Date Brightness Start Highest point End Pass type
(mag) Time Alt. Az. Time Alt. Az. Time Alt. Az.
01 Feb - 00:10:28 10° WNW 00:13:41 47° N 00:16:54 10° ENE night (unlit)
01 Feb - 01:47:06 10° WNW 01:50:24 77° NNE 01:53:43 10° ESE night (unlit)
01 Feb - 03:23:51 10° W 03:26:40 26° SW 03:29:28 10° SSE night (unlit)
01 Feb - 20:07:13 10° SSE 20:08:42 13° SE 20:10:17 10° ESE night (unlit)
01 Feb - 21:41:27 10° SW 21:44:41 63° SSE 21:47:58 10° ENE night (unlit)
01 Feb - 23:18:02 10° W 23:21:16 50° N 23:24:30 10° ENE night (unlit)
02 Feb - 00:54:45 10° WNW 00:58:02 59° NNE 01:01:18 10° E night (unlit)
02 Feb - 02:31:20 10° WNW 02:34:28 41° SSW 02:37:36 10° SE night (unlit)
02 Feb - 20:49:20 10° SW 20:52:25 39° SSE 20:55:31 10° ENE night (unlit)
02 Feb - 22:25:34 10° W 22:28:50 60° NNW 22:32:07 10° ENE night (unlit)
03 Feb - 00:02:23 10° WNW 00:05:36 50° N 00:08:50 10° E night (unlit)
03 Feb - 01:38:54 10° WNW 01:42:11 66° SSW 01:45:27 10° SE night (unlit)
03 Feb - 03:16:27 10° WSW 03:18:12 13° SW 03:19:52 10° SSW night (unlit)
03 Feb - 19:57:28 10° SSW 20:00:11 24° SE 20:02:56 10° E visible
03 Feb - 21:33:07 10° WSW 21:36:25 79° NNW 21:39:43 10° ENE night (unlit)
03 Feb - 23:09:55 10° WNW 23:13:07 47° N 23:16:20 10° ENE night (unlit)
04 Feb - 00:46:30 10° WNW 00:49:49 85° NNE 00:53:07 10° ESE night (unlit)
04 Feb - 02:23:22 10° W 02:26:01 22° SW 02:28:37 10° SSE night (unlit)
04 Feb - 19:06:02 10° S 19:07:58 15° SE 19:09:58 10° E visible
04 Feb - 20:40:45 10° WSW 20:44:00 73° SSE 20:47:18 10° ENE visible
04 Feb - 22:17:25 10° W 22:20:37 49° N 22:23:50 10° ENE night (unlit)
04 Feb - 23:54:06 10° WNW 23:57:23 64° NNE 00:00:39 10° E night (unlit)
05 Feb - 01:30:42 10° W 01:33:45 35° SSW 01:36:47 10° SE night (unlit)
05 Feb - 19:48:29 10° SW 19:51:38 46° SSE 19:54:48 10° ENE visible
05 Feb - 21:24:52 10° W 21:28:06 56° NNW 21:31:21 10° ENE night (unlit)
05 Feb - 23:01:38 10° WNW 23:04:52 52° N 23:08:06 10° E night (unlit)
06 Feb - 00:38:09 10° WNW 00:41:24 56° SSW 00:44:38 10° SE night (unlit)
06 Feb - 02:16:13 10° WSW 02:17:20 11° SW 02:18:21 10° SSW night (unlit)
06 Feb - 18:56:26 10° SSW 18:59:17 29° SE 19:02:12 10° E visible
06 Feb - 20:32:19 10° WSW 20:35:35 71° NNW 20:38:53 10° ENE visible
06 Feb - 22:09:07 10° WNW 22:12:18 47° N 22:15:31 10° E night (unlit)
06 Feb - 23:45:40 10° WNW 23:48:58 85° SSW 23:52:16 10° ESE night (unlit)
07 Feb - 01:22:41 10° W 01:25:06 19° SW 01:27:28 10° S night (unlit)
07 Feb - 18:04:43 10° S 18:06:59 18° SE 18:09:18 10° E visible
07 Feb - 19:39:49 10° WSW 19:43:05 83° SSE 19:46:23 10° ENE visible
07 Feb - 21:16:32 10° W 21:19:43 47° N 21:22:56 10° ENE visible
07 Feb - 22:53:10 10° WNW 22:56:27 70° NNE 22:59:45 10° ESE night (unlit)
08 Feb - 00:29:49 10° W 00:32:46 30° SW 00:35:41 10° SSE night (unlit)
08 Feb - 17:14:05 10° SE 17:14:42 10° SE 17:15:26 10° ESE daylight
08 Feb - 18:47:25 10° SW 18:50:37 54° SSE 18:53:50 10° ENE visible
08 Feb - 20:23:54 10° W 20:27:07 53° N 20:30:21 10° ENE visible
08 Feb - 22:00:38 10° WNW 22:03:53 55° N 22:07:07 10° E night (unlit)
08 Feb - 23:37:10 10° WNW 23:40:21 48° SSW 23:43:32 10° SE night (unlit)
09 Feb - 17:55:12 10° SSW 17:58:10 33° SE 18:01:11 10° E visible
09 Feb - 19:31:15 10° W 19:34:30 65° NNW 19:37:47 10° ENE visible
09 Feb - 21:08:02 10° WNW 21:11:15 48° N 21:14:27 10° E visible
09 Feb - 22:44:35 10° WNW 22:47:52 76° SSW 22:51:08 10° ESE night (unlit)
10 Feb - 00:21:47 10° W 00:23:55 16° SW 00:25:59 10° S night (unlit)
10 Feb - 17:03:15 10° S 17:05:45 21° SE 17:08:18 10° E daylight
10 Feb - 18:38:38 10° WSW 18:41:55 88° NNW 18:45:12 10° ENE visible
10 Feb - 20:15:23 10° WNW 20:18:35 47° N 20:21:46 10° ENE visible
10 Feb - 21:52:00 10° WNW 21:55:17 76° NNE 21:58:34 10° ESE night (unlit)
10 Feb - 23:28:43 10° W 23:31:32 26° SW 23:34:18 10° SSE night (unlit)
